Change the Weather History Date:

Wednesday, May 7, 2014

  Actual Average Record
Temperature  
Mean Temperature 47 °F -  
Max Temperature 66 °F 65 °F 88 °F (2000)
Min Temperature 28 °F 37 °F 22 °F (1968)
Degree Days  
Heating Degree Days 18    
Moisture  
Dew Point 26 °F    
Average Humidity 52    
Maximum Humidity 88    
Minimum Humidity 17    
Precipitation  
Precipitation 0.00 in - - ()
Sea Level Pressure  
Sea Level Pressure 30.15 in    
Wind  
Wind Speed 4 mph (NNW)    
Max Wind Speed 13 mph    
Max Gust Speed 20 mph    
Visibility 10 miles    
Events      
Averages and records for this station are not official NWS values.
T = Trace of Precipitation, MM = Missing Value Source: NWS Daily Summary

Daily Weather History Graph

Daily Weather History Graph

Search for Another Location

Airport or City:

Trip Planner

Search our weather history database for the weather conditions in past years. The results will help you decide how hot, cold, wet, or windy it might be!

Date:

Astronomy

May. 07, 2014 Rise Set
Actual Time 5:33 AM EDT 7:58 PM EDT
Civil Twilight 5:01 AM EDT 8:30 PM EDT
Nautical Twilight 4:21 AM EDT 9:10 PM EDT
Astronomical Twilight 3:36 AM EDT 9:56 PM EDT
Moon 12:48 PM EDT (5/7) 1:44 AM EDT (5/7)
Length of Visible Light 15h 29m
Length of Day
14h 24m
First Quarter, 55% of the Moon is Illuminated
May 7
First Quarter
May 14
Full
May 21
Last Quarter
May 28
New
Jun 5
First Quarter

Hourly Weather History & Observations

Time (EDT) Temp. Windchill Dew Point Humidity Pressure Visibility Wind Dir Wind Speed Gust Speed Precip Events Conditions
12:53 AM 34.0 °F - 27.0 °F 75% 30.08 in 10.0 mi Calm Calm - N/A   Clear
1:53 AM 34.0 °F 29.8 °F 28.0 °F 79% 30.09 in 10.0 mi NE 4.6 mph - N/A   Clear
2:53 AM 32.0 °F 26.4 °F 27.0 °F 82% 30.10 in 10.0 mi South 5.8 mph - N/A   Clear
3:53 AM 33.1 °F 30.0 °F 27.0 °F 78% 30.12 in 10.0 mi NNE 3.5 mph - N/A   Clear
4:53 AM 30.0 °F - 27.0 °F 88% 30.14 in 10.0 mi Calm Calm - N/A   Clear
5:53 AM 28.9 °F - 25.0 °F 85% 30.17 in 10.0 mi Calm Calm - N/A   Clear
6:53 AM 33.1 °F - 28.0 °F 82% 30.19 in 10.0 mi Calm Calm - N/A   Clear
7:53 AM 42.1 °F - 30.0 °F 62% 30.19 in 10.0 mi Calm Calm - N/A   Clear
8:53 AM 46.9 °F - 30.0 °F 52% 30.19 in 10.0 mi Calm Calm - N/A   Clear
9:53 AM 54.0 °F - 24.1 °F 31% 30.19 in 10.0 mi WNW 11.5 mph - N/A   Clear
10:53 AM 57.0 °F - 24.1 °F 28% 30.21 in 10.0 mi WNW 11.5 mph 16.1 mph N/A   Clear
11:53 AM 61.0 °F - 23.0 °F 23% 30.19 in 10.0 mi NNW 10.4 mph 17.3 mph N/A   Clear
2:53 PM 64.9 °F - 21.9 °F 19% 30.14 in 10.0 mi NW 6.9 mph 19.6 mph N/A   Clear
3:53 PM 66.9 °F - 21.0 °F 17% 30.13 in 10.0 mi NNW 12.7 mph 17.3 mph N/A   Clear
4:53 PM 66.0 °F - 19.9 °F 17% 30.13 in 10.0 mi NW 4.6 mph - N/A   Clear
5:53 PM 64.9 °F - 19.0 °F 17% 30.13 in 10.0 mi WNW 11.5 mph - N/A   Clear
6:53 PM 64.0 °F - 18.0 °F 17% 30.13 in 10.0 mi North 8.1 mph - N/A   Clear
7:53 PM 57.0 °F - 24.1 °F 28% 30.15 in 10.0 mi ENE 3.5 mph - N/A   Clear
8:53 PM 45.0 °F - 32.0 °F 60% 30.17 in 10.0 mi Calm Calm - N/A   Clear
9:53 PM 42.1 °F - 30.9 °F 65% 30.18 in 10.0 mi Calm Calm - N/A   Clear
10:53 PM 39.0 °F - 30.0 °F 70% 30.18 in 10.0 mi Calm Calm - N/A   Clear
11:53 PM 39.0 °F - 30.9 °F 73% 30.19 in 10.0 mi Calm Calm - N/A   Clear